����������;��������(kWh)
2019-06-24 00:00;85,75
2019-06-24 00:15;86
2019-06-24 00:30;89,3
2019-06-24 00:45;87,7
2019-06-24 01:00;88,65
2019-06-24 01:15;88,35
2019-06-24 01:30;86,65
2019-06-24 01:45;87,15
2019-06-24 02:00;86,7
2019-06-24 02:15;85,4
2019-06-24 02:30;86
2019-06-24 02:45;86,8
2019-06-24 03:00;87
2019-06-24 03:15;85,5
2019-06-24 03:30;90,55
2019-06-24 03:45;90,6
2019-06-24 04:00;88
2019-06-24 04:15;86,55
2019-06-24 04:30;84,2
2019-06-24 04:45;86,2
2019-06-24 05:00;86,4
2019-06-24 05:15;86,8
2019-06-24 05:30;85,5
2019-06-24 05:45;89,1
2019-06-24 06:00;86
2019-06-24 06:15;81,4
2019-06-24 06:30;81,25
2019-06-24 06:45;80,85
2019-06-24 07:00;81,05
2019-06-24 07:15;83,15
2019-06-24 07:30;154,35
2019-06-24 07:45;167,95
2019-06-24 08:00;187,45
2019-06-24 08:15;184,7
2019-06-24 08:30;161,6
2019-06-24 08:45;173,6
2019-06-24 09:00;183,1
2019-06-24 09:15;205,8
2019-06-24 09:30;198,95
2019-06-24 09:45;221,85
2019-06-24 10:00;247,4
2019-06-24 10:15;238,4
2019-06-24 10:30;269,8
2019-06-24 10:45;262,5
2019-06-24 11:00;285,45
2019-06-24 11:15;281,4
2019-06-24 11:30;306,35
2019-06-24 11:45;322,2
2019-06-24 12:00;292,75
2019-06-24 12:15;309,7
2019-06-24 12:30;321,15
2019-06-24 12:45;298,45
2019-06-24 13:00;311,95
2019-06-24 13:15;313,05
2019-06-24 13:30;297,4
2019-06-24 13:45;326,35
2019-06-24 14:00;322,45
2019-06-24 14:15;298,3
2019-06-24 14:30;324,3
2019-06-24 14:45;309
2019-06-24 15:00;284,2
2019-06-24 15:15;293,1
2019-06-24 15:30;301
2019-06-24 15:45;277
2019-06-24 16:00;12,05
2019-06-24 16:15;0
2019-06-24 16:30;0
2019-06-24 16:45;0
2019-06-24 17:00;0
2019-06-24 17:15;0
2019-06-24 17:30;0
2019-06-24 17:45;0
2019-06-24 18:00;0
2019-06-24 18:15;192,15
2019-06-24 18:30;273,35
2019-06-24 18:45;213,95
2019-06-24 19:00;201,1
2019-06-24 19:15;196,8
2019-06-24 19:30;188,5
2019-06-24 19:45;185
2019-06-24 20:00;186,6
2019-06-24 20:15;179
2019-06-24 20:30;176
2019-06-24 20:45;172,3
2019-06-24 21:00;164,8
2019-06-24 21:15;170,7
2019-06-24 21:30;30,45
2019-06-24 21:45;0
2019-06-24 22:00;80,45
2019-06-24 22:15;141,4
2019-06-24 22:30;136,25
2019-06-24 22:45;132,8
2019-06-24 23:00;131,9
2019-06-24 23:15;131,5
2019-06-24 23:30;128,05
2019-06-24 23:45;124,35
2019-06-25 00:00;122,45
2019-06-25 00:15;119,35
2019-06-25 00:30;111,35
2019-06-25 00:45;105,45
2019-06-25 01:00;103
2019-06-25 01:15;104,05
2019-06-25 01:30;106,85
2019-06-25 01:45;104,9
2019-06-25 02:00;106,65
2019-06-25 02:15;103,95
2019-06-25 02:30;105,7
2019-06-25 02:45;106,3
2019-06-25 03:00;105
2019-06-25 03:15;104,35
2019-06-25 03:30;104,25
2019-06-25 03:45;104,95
2019-06-25 04:00;110,7
2019-06-25 04:15;109,5
2019-06-25 04:30;104,6
2019-06-25 04:45;105,75
2019-06-25 05:00;107
2019-06-25 05:15;104,15
2019-06-25 05:30;105,35
2019-06-25 05:45;105,95
2019-06-25 06:00;105,5
2019-06-25 06:15;102,85
2019-06-25 06:30;102,6
2019-06-25 06:45;100,5
2019-06-25 07:00;95,75
2019-06-25 07:15;97,2
2019-06-25 07:30;104,7
2019-06-25 07:45;117,6
2019-06-25 08:00;138,55
2019-06-25 08:15;148,25
2019-06-25 08:30;156,6
2019-06-25 08:45;166,4
2019-06-25 09:00;175,95
2019-06-25 09:15;231,25
2019-06-25 09:30;253,4
2019-06-25 09:45;255,25
2019-06-25 10:00;232,65
2019-06-25 10:15;253,5
2019-06-25 10:30;254,2
2019-06-25 10:45;254,3
2019-06-25 11:00;287,25
2019-06-25 11:15;268,9
2019-06-25 11:30;284,45
2019-06-25 11:45;301,85
2019-06-25 12:00;301,4
2019-06-25 12:15;299,25
2019-06-25 12:30;302,3
2019-06-25 12:45;311,85
2019-06-25 13:00;288,7
2019-06-25 13:15;304,85
2019-06-25 13:30;294,35
2019-06-25 13:45;292,55
2019-06-25 14:00;304,2
2019-06-25 14:15;281,25
2019-06-25 14:30;287,3
2019-06-25 14:45;275,25
2019-06-25 15:00;271,6
2019-06-25 15:15;286,35
2019-06-25 15:30;256,9
2019-06-25 15:45;262,8
2019-06-25 16:00;92,65
2019-06-25 16:15;227,75
2019-06-25 16:30;222,5
2019-06-25 16:45;214,55
2019-06-25 17:00;225,9
2019-06-25 17:15;201,8
2019-06-25 17:30;201
2019-06-25 17:45;206
2019-06-25 18:00;189,7
2019-06-25 18:15;191,6
2019-06-25 18:30;181,2
2019-06-25 18:45;172,5
2019-06-25 19:00;171,8
2019-06-25 19:15;180,5
2019-06-25 19:30;179,35
2019-06-25 19:45;158,15
2019-06-25 20:00;154,7
2019-06-25 20:15;148,65
2019-06-25 20:30;144,9
2019-06-25 20:45;142,5
2019-06-25 21:00;142,65
2019-06-25 21:15;137,55
2019-06-25 21:30;137,85
2019-06-25 21:45;123,45
2019-06-25 22:00;118,95
2019-06-25 22:15;116,25
2019-06-25 22:30;116,7
2019-06-25 22:45;114,85
2019-06-25 23:00;115,15
2019-06-25 23:15;108,95
2019-06-25 23:30;107,65
2019-06-25 23:45;115,2
2019-06-26 00:00;104,6
2019-06-26 00:15;102,55
2019-06-26 00:30;104,5
2019-06-26 00:45;104,6
2019-06-26 01:00;91,4
2019-06-26 01:15;92,2
2019-06-26 01:30;92,95
2019-06-26 01:45;91,05
2019-06-26 02:00;91,95
2019-06-26 02:15;93,75
2019-06-26 02:30;93,2
2019-06-26 02:45;90,15
2019-06-26 03:00;89,45
2019-06-26 03:15;91,5
2019-06-26 03:30;91,1
2019-06-26 03:45;89,85
2019-06-26 04:00;88
2019-06-26 04:15;87,8
2019-06-26 04:30;89,35
2019-06-26 04:45;92,3
2019-06-26 05:00;92,45
2019-06-26 05:15;91,95
2019-06-26 05:30;90,2
2019-06-26 05:45;92,3
2019-06-26 06:00;89,55
2019-06-26 06:15;86,1
2019-06-26 06:30;84,75
2019-06-26 06:45;85,45
2019-06-26 07:00;84,3
2019-06-26 07:15;87,05
2019-06-26 07:30;150,95
2019-06-26 07:45;145,75
2019-06-26 08:00;130,45
2019-06-26 08:15;148
2019-06-26 08:30;153,45
2019-06-26 08:45;162,05
2019-06-26 09:00;166,75
2019-06-26 09:15;184,3
2019-06-26 09:30;211,8
2019-06-26 09:45;214,2
2019-06-26 10:00;227,45
2019-06-26 10:15;237,85
2019-06-26 10:30;248,1
2019-06-26 10:45;254,85
2019-06-26 11:00;271,15
2019-06-26 11:15;273
2019-06-26 11:30;274,85
2019-06-26 11:45;270,1
2019-06-26 12:00;280,8
2019-06-26 12:15;280,35
2019-06-26 12:30;275,9
2019-06-26 12:45;265
2019-06-26 13:00;277,65
2019-06-26 13:15;270,65
2019-06-26 13:30;273,9
2019-06-26 13:45;280,9
2019-06-26 14:00;255,05
2019-06-26 14:15;281,9
2019-06-26 14:30;267,65
2019-06-26 14:45;269,6
2019-06-26 15:00;264,15
2019-06-26 15:15;254,85
2019-06-26 15:30;270,05
2019-06-26 15:45;236,45
2019-06-26 16:00;244,3
2019-06-26 16:15;240,6
2019-06-26 16:30;214,2
2019-06-26 16:45;221,25
2019-06-26 17:00;216,25
2019-06-26 17:15;203,55
2019-06-26 17:30;201,75
2019-06-26 17:45;204,9
2019-06-26 18:00;187,1
2019-06-26 18:15;182,65
2019-06-26 18:30;186,85
2019-06-26 18:45;188,4
2019-06-26 19:00;184,65
2019-06-26 19:15;181,95
2019-06-26 19:30;180,65
2019-06-26 19:45;156,4
2019-06-26 20:00;145,4
2019-06-26 20:15;142,35
2019-06-26 20:30;140,1
2019-06-26 20:45;142,3
2019-06-26 21:00;140,75
2019-06-26 21:15;141,1
2019-06-26 21:30;138,05
2019-06-26 21:45;129,05
2019-06-26 22:00;120,8
2019-06-26 22:15;116,65
2019-06-26 22:30;113,35
2019-06-26 22:45;113,45
2019-06-26 23:00;120
2019-06-26 23:15;114,55
2019-06-26 23:30;117,55
2019-06-26 23:45;120,7
2019-06-27 00:00;104,65
2019-06-27 00:15;103,45
2019-06-27 00:30;105,85
2019-06-27 00:45;106,35
2019-06-27 01:00;98,5
2019-06-27 01:15;93,3
2019-06-27 01:30;94,85
2019-06-27 01:45;95,6
2019-06-27 02:00;93,55
2019-06-27 02:15;94,4
2019-06-27 02:30;93,1
2019-06-27 02:45;91,65
2019-06-27 03:00;90,45
2019-06-27 03:15;89,2
2019-06-27 03:30;90,3
2019-06-27 03:45;91,4
2019-06-27 04:00;88,7
2019-06-27 04:15;88,65
2019-06-27 04:30;90
2019-06-27 04:45;92,15
2019-06-27 05:00;92,15
2019-06-27 05:15;92,5
2019-06-27 05:30;95,35
2019-06-27 05:45;93,9
2019-06-27 06:00;93,65
2019-06-27 06:15;87,95
2019-06-27 06:30;88,7
2019-06-27 06:45;91,8
2019-06-27 07:00;93,3
2019-06-27 07:15;93
2019-06-27 07:30;156,75
2019-06-27 07:45;167,05
2019-06-27 08:00;165,1
2019-06-27 08:15;169,95
2019-06-27 08:30;162
2019-06-27 08:45;171,9
2019-06-27 09:00;174,2
2019-06-27 09:15;201,4
2019-06-27 09:30;211
2019-06-27 09:45;229,9
2019-06-27 10:00;221,15
2019-06-27 10:15;248,7
2019-06-27 10:30;260,75
2019-06-27 10:45;246,65
2019-06-27 11:00;262,85
2019-06-27 11:15;250,05
2019-06-27 11:30;264,9
2019-06-27 11:45;254,15
2019-06-27 12:00;284,1
2019-06-27 12:15;267,25
2019-06-27 12:30;268
2019-06-27 12:45;279,4
2019-06-27 13:00;256,4
2019-06-27 13:15;267,8
2019-06-27 13:30;289,1
2019-06-27 13:45;260,95
2019-06-27 14:00;266,2
2019-06-27 14:15;279,25
2019-06-27 14:30;251
2019-06-27 14:45;270,1
2019-06-27 15:00;260,6
2019-06-27 15:15;256,55
2019-06-27 15:30;269,75
2019-06-27 15:45;244,5
2019-06-27 16:00;244,1
2019-06-27 16:15;239,95
2019-06-27 16:30;238,75
2019-06-27 16:45;217,4
2019-06-27 17:00;218,75
2019-06-27 17:15;195,3
2019-06-27 17:30;202,4
2019-06-27 17:45;194
2019-06-27 18:00;185,8
2019-06-27 18:15;195,85
2019-06-27 18:30;173,4
2019-06-27 18:45;179,2
2019-06-27 19:00;178,7
2019-06-27 19:15;173,8
2019-06-27 19:30;168,75
2019-06-27 19:45;158,3
2019-06-27 20:00;149,5
2019-06-27 20:15;144,9
2019-06-27 20:30;140,4
2019-06-27 20:45;137,85
2019-06-27 21:00;129,85
2019-06-27 21:15;129,55
2019-06-27 21:30;127,45
2019-06-27 21:45;121,55
2019-06-27 22:00;115,95
2019-06-27 22:15;112,85
2019-06-27 22:30;113,35
2019-06-27 22:45;111,85
2019-06-27 23:00;116,65
2019-06-27 23:15;109,95
2019-06-27 23:30;114,6
2019-06-27 23:45;115,65
2019-06-28 00:00;106,2
2019-06-28 00:15;108,85
2019-06-28 00:30;110,6
2019-06-28 00:45;107,3
2019-06-28 01:00;106,8
2019-06-28 01:15;101,7
2019-06-28 01:30;95,3
2019-06-28 01:45;89,1
2019-06-28 02:00;87,6
2019-06-28 02:15;83
2019-06-28 02:30;83,45
2019-06-28 02:45;82,35
2019-06-28 03:00;84,1
2019-06-28 03:15;83,25
2019-06-28 03:30;81,65
2019-06-28 03:45;81,9
2019-06-28 04:00;84,3
2019-06-28 04:15;86
2019-06-28 04:30;85,45
2019-06-28 04:45;86,1
2019-06-28 05:00;85,65
2019-06-28 05:15;88,6
2019-06-28 05:30;89,1
2019-06-28 05:45;92,95
2019-06-28 06:00;89,35
2019-06-28 06:15;85
2019-06-28 06:30;87,65
2019-06-28 06:45;84,35
2019-06-28 07:00;86,3
2019-06-28 07:15;90,25
2019-06-28 07:30;155,35
2019-06-28 07:45;164,95
2019-06-28 08:00;160
2019-06-28 08:15;162,35
2019-06-28 08:30;156,55
2019-06-28 08:45;161,85
2019-06-28 09:00;199,5
2019-06-28 09:15;190,25
2019-06-28 09:30;217,1
2019-06-28 09:45;242,35
2019-06-28 10:00;227,8
2019-06-28 10:15;250,95
2019-06-28 10:30;236,45
2019-06-28 10:45;259,65
2019-06-28 11:00;249,7
2019-06-28 11:15;247,9
2019-06-28 11:30;275
2019-06-28 11:45;261,05
2019-06-28 12:00;261,35
2019-06-28 12:15;285,05
2019-06-28 12:30;261,75
2019-06-28 12:45;267,6
2019-06-28 13:00;285,55
2019-06-28 13:15;261,3
2019-06-28 13:30;270,4
2019-06-28 13:45;283,2
2019-06-28 14:00;255,05
2019-06-28 14:15;272,3
2019-06-28 14:30;255,8
2019-06-28 14:45;262,55
2019-06-28 15:00;244,5
2019-06-28 15:15;253,55
2019-06-28 15:30;259,6
2019-06-28 15:45;233,1
2019-06-28 16:00;233,45
2019-06-28 16:15;220,45
2019-06-28 16:30;231,55
2019-06-28 16:45;203,6
2019-06-28 17:00;216,55
2019-06-28 17:15;186,9
2019-06-28 17:30;192,9
2019-06-28 17:45;188,4
2019-06-28 18:00;184,8
2019-06-28 18:15;184,6
2019-06-28 18:30;181,95
2019-06-28 18:45;180,1
2019-06-28 19:00;182,3
2019-06-28 19:15;183
2019-06-28 19:30;164,15
2019-06-28 19:45;152,05
2019-06-28 20:00;144,75
2019-06-28 20:15;140,35
2019-06-28 20:30;143
2019-06-28 20:45;140,2
2019-06-28 21:00;135,45
2019-06-28 21:15;129,65
2019-06-28 21:30;129,55
2019-06-28 21:45;124
2019-06-28 22:00;118,35
2019-06-28 22:15;116,3
2019-06-28 22:30;112,6
2019-06-28 22:45;112,95
2019-06-28 23:00;120,55
2019-06-28 23:15;111,95
2019-06-28 23:30;113,25
2019-06-28 23:45;116,95
2019-06-29 00:00;104,8
2019-06-29 00:15;107
2019-06-29 00:30;104,5
2019-06-29 00:45;103,1
2019-06-29 01:00;101,8
2019-06-29 01:15;105,85
2019-06-29 01:30;98,9
2019-06-29 01:45;98,1
2019-06-29 02:00;99
2019-06-29 02:15;87,95
2019-06-29 02:30;87,65
2019-06-29 02:45;92,2
2019-06-29 03:00;89
2019-06-29 03:15;88,4
2019-06-29 03:30;88,7
2019-06-29 03:45;89
2019-06-29 04:00;88,25
2019-06-29 04:15;90,85
2019-06-29 04:30;89,8
2019-06-29 04:45;86,9
2019-06-29 05:00;87,2
2019-06-29 05:15;85,15
2019-06-29 05:30;84,3
2019-06-29 05:45;88,55
2019-06-29 06:00;82
2019-06-29 06:15;78,6
2019-06-29 06:30;79,7
2019-06-29 06:45;77,6
2019-06-29 07:00;78,5
2019-06-29 07:15;75,4
2019-06-29 07:30;78,25
2019-06-29 07:45;76,15
2019-06-29 08:00;75,3
2019-06-29 08:15;79,4
2019-06-29 08:30;78,8
2019-06-29 08:45;82,25
2019-06-29 09:00;84,15
2019-06-29 09:15;84,8
2019-06-29 09:30;83,45
2019-06-29 09:45;87,15
2019-06-29 10:00;91,65
2019-06-29 10:15;92,75
2019-06-29 10:30;90,8
2019-06-29 10:45;91,2
2019-06-29 11:00;88,5
2019-06-29 11:15;89,5
2019-06-29 11:30;90,55
2019-06-29 11:45;91,75
2019-06-29 12:00;97,05
2019-06-29 12:15;94,05
2019-06-29 12:30;96,6
2019-06-29 12:45;96,8
2019-06-29 13:00;96,8
2019-06-29 13:15;95,3
2019-06-29 13:30;95,95
2019-06-29 13:45;98,55
2019-06-29 14:00;94,95
2019-06-29 14:15;96,35
2019-06-29 14:30;94,1
2019-06-29 14:45;94,4
2019-06-29 15:00;92,4
2019-06-29 15:15;95,4
2019-06-29 15:30;93,4
2019-06-29 15:45;91
2019-06-29 16:00;90,9
2019-06-29 16:15;94,2
2019-06-29 16:30;93,5
2019-06-29 16:45;92,9
2019-06-29 17:00;88,4
2019-06-29 17:15;90,95
2019-06-29 17:30;93,3
2019-06-29 17:45;93,45
2019-06-29 18:00;91,8
2019-06-29 18:15;93,1
2019-06-29 18:30;88,75
2019-06-29 18:45;91,4
2019-06-29 19:00;97,5
2019-06-29 19:15;97,9
2019-06-29 19:30;96,65
2019-06-29 19:45;97,4
2019-06-29 20:00;95,35
2019-06-29 20:15;96,3
2019-06-29 20:30;97,2
2019-06-29 20:45;97,4
2019-06-29 21:00;99
2019-06-29 21:15;101,1
2019-06-29 21:30;98,25
2019-06-29 21:45;96,9
2019-06-29 22:00;92,3
2019-06-29 22:15;94,45
2019-06-29 22:30;90,15
2019-06-29 22:45;89,7
2019-06-29 23:00;94,15
2019-06-29 23:15;92,3
2019-06-29 23:30;92,6
2019-06-29 23:45;96,45
2019-06-30 00:00;84,25
2019-06-30 00:15;86,45
2019-06-30 00:30;84,3
2019-06-30 00:45;82,8
2019-06-30 01:00;84,6
2019-06-30 01:15;85,7
2019-06-30 01:30;82,6
2019-06-30 01:45;82
2019-06-30 02:00;83,95
2019-06-30 02:15;83,25
2019-06-30 02:30;83,05
2019-06-30 02:45;82,25
2019-06-30 03:00;82,45
2019-06-30 03:15;85,3
2019-06-30 03:30;82,35
2019-06-30 03:45;84,8
2019-06-30 04:00;86,25
2019-06-30 04:15;87,15
2019-06-30 04:30;87,3
2019-06-30 04:45;86,55
2019-06-30 05:00;89,4
2019-06-30 05:15;87,4
2019-06-30 05:30;85,95
2019-06-30 05:45;87,65
2019-06-30 06:00;85,2
2019-06-30 06:15;82,75
2019-06-30 06:30;82,3
2019-06-30 06:45;79,65
2019-06-30 07:00;76,75
2019-06-30 07:15;77,4
2019-06-30 07:30;76,7
2019-06-30 07:45;75,8
2019-06-30 08:00;74,1
2019-06-30 08:15;75,7
2019-06-30 08:30;76,3
2019-06-30 08:45;76,5
2019-06-30 09:00;77,05
2019-06-30 09:15;81,6
2019-06-30 09:30;80,85
2019-06-30 09:45;88,1
2019-06-30 10:00;86,25
2019-06-30 10:15;90,4
2019-06-30 10:30;88,45
2019-06-30 10:45;90,5
2019-06-30 11:00;91,65
2019-06-30 11:15;91,15
2019-06-30 11:30;93
2019-06-30 11:45;95,2
2019-06-30 12:00;98,95
2019-06-30 12:15;99
2019-06-30 12:30;95,75
2019-06-30 12:45;95,9
2019-06-30 13:00;94,2
2019-06-30 13:15;93,7
2019-06-30 13:30;93,6
2019-06-30 13:45;95,2
2019-06-30 14:00;91,5
2019-06-30 14:15;92,45
2019-06-30 14:30;91,05
2019-06-30 14:45;91,2
2019-06-30 15:00;90
2019-06-30 15:15;88,75
2019-06-30 15:30;87,95
2019-06-30 15:45;89,1
2019-06-30 16:00;91,15
2019-06-30 16:15;88,55
2019-06-30 16:30;86,25
2019-06-30 16:45;85,9
2019-06-30 17:00;84,8
2019-06-30 17:15;86,15
2019-06-30 17:30;85,6
2019-06-30 17:45;83,75
2019-06-30 18:00;84,85
2019-06-30 18:15;85,55
2019-06-30 18:30;88,15
2019-06-30 18:45;91,75
2019-06-30 19:00;85,95
2019-06-30 19:15;89,25
2019-06-30 19:30;93,1
2019-06-30 19:45;92,4
2019-06-30 20:00;92,15
2019-06-30 20:15;91,35
2019-06-30 20:30;91,05
2019-06-30 20:45;92,8
2019-06-30 21:00;95,05
2019-06-30 21:15;96,2
2019-06-30 21:30;94,3
2019-06-30 21:45;91,85
2019-06-30 22:00;89,9
2019-06-30 22:15;87,2
2019-06-30 22:30;88,05
2019-06-30 22:45;88,1
2019-06-30 23:00;91,4
2019-06-30 23:15;88,15
2019-06-30 23:30;88,5
2019-06-30 23:45;92,55

